date,time,DOY,Ta_1_1_1,RH_1_1_1,LWin_1_1_1,LWout_1_1_1,SWin_1_1_1,SWout_1_1_1,PPFD_1_1_1,SWC_1_1_1,Ts_1_1_1
[yyyy-mm-dd],[HH:MM],[ddd.ddd],[K],[%],[W+1m-2],[W+1m-2],[W+1m-2],[W+1m-2],[µmol+1m-2s-1],[m+3m-3],[K]
2014-05-23,00:30,143.020,281.49766666666670,74.268333333333345,-9999.0,-9999.0,0.27099999999999996,-4.6813333333333329,-1.70000000000000047E-002,0.33999999999999991,281.96400000000000
2014-05-23,01:00,143.041,281.02133333333330,77.149333333333331,-9999.0,-9999.0,0.48599999999999988,-4.4560000000000004,-1.90000000000000030E-002,0.33999999999999991,281.78933333333339
2014-05-23,01:30,143.062,280.63433333333336,79.255333333333326,-9999.0,-9999.0,0.31033333333333335,-4.4820000000000002,-1.93333333333333343E-002,0.33999999999999991,281.61099999999999
2014-05-23,02:00,143.083,280.31133333333338,81.184666666666672,-9999.0,-9999.0,0.24133333333333334,-4.3863333333333339,-1.83333333333333369E-002,0.33999999999999991,281.43666666666667
2014-05-23,02:30,143.104,279.81633333333338,83.988666666666660,-9999.0,-9999.0,0.32166666666666666,-4.6143333333333327,-1.80000000000000021E-002,0.33999999999999991,281.28066666666666
2014-05-23,03:00,143.124,279.79066666666671,84.252333333333326,-9999.0,-9999.0,0.44099999999999995,-4.1936666666666671,-2.63333333333333405E-002,0.33999999999999991,281.10900000000004
2014-05-23,03:30,143.145,279.75166666666672,84.753000000000000,-9999.0,-9999.0,0.30666666666666670,-3.6293333333333329,-2.76666666666666762E-002,0.33999999999999991,280.94066666666663
2014-05-23,04:00,143.166,280.05700000000002,84.101333333333329,-9999.0,-9999.0,0.57133333333333347,-3.6449999999999991,0.23833333333333334,0.33999999999999991,280.80366666666674
2014-05-23,04:30,143.187,280.01733333333334,84.817000000000007,-9999.0,-9999.0,1.7783333333333331,2.5886666666666667,9.8710000000000004,0.33999999999999991,280.67533333333336
2014-05-23,05:00,143.208,280.30133333333345,84.085999999999999,-9999.0,-9999.0,4.8593333333333328,26.057666666666666,55.490999999999993,0.33999999999999991,280.53633333333340
2014-05-23,05:30,143.229,281.03499999999997,80.939333333333337,-9999.0,-9999.0,17.717333333333332,113.46633333333334,186.39133333333336,0.33999999999999991,280.44000000000000
2014-05-23,06:00,143.249,281.70633333333336,77.220333333333343,-9999.0,-9999.0,26.899666666666675,197.25933333333333,341.07433333333324,0.33999999999999991,280.42666666666662
2014-05-23,06:30,143.270,282.59766666666667,71.172333333333327,-9999.0,-9999.0,37.749333333333325,287.35066666666660,517.81966666666676,0.33999999999999991,280.54633333333334
2014-05-23,07:00,143.291,283.76833333333337,63.439333333333330,-9.6433333333333326,-9999.0,48.704333333333345,381.47933333333339,708.31333333333316,0.33999999999999991,280.94533333333334
2014-05-23,07:30,143.312,284.41633333333334,60.846333333333341,-7.5260714285714290,-9999.0,59.831666666666671,475.72033333333337,898.79466666666656,0.33999999999999991,281.40466666666657
2014-05-23,08:00,143.333,285.13433333333342,56.956999999999994,-4.8870000000000005,-9999.0,70.403666666666666,564.50800000000004,1085.0573333333336,0.33999999999999991,282.30199999999996
2014-05-23,08:30,143.354,285.99266666666671,51.467333333333315,-3.7690000000000001,-9999.0,78.264666666666670,647.18600000000015,1263.0783333333334,0.33999999999999991,283.53600000000000
2014-05-23,09:00,143.374,286.60633333333340,48.380333333333326,-0.71899999999999986,-9999.0,87.901666666666657,723.20633333333330,1425.0056666666669,0.33999999999999991,284.17266666666666
2014-05-23,09:30,143.395,287.09300000000002,46.679666666666670,1.7823333333333329,-9999.0,94.257333333333321,789.24266666666654,1570.1140000000000,0.33999999999999991,284.79199999999997
2014-05-23,10:00,143.416,287.61500000000001,45.375000000000000,3.0243333333333329,-9999.0,99.569333333333333,842.28233333333321,1690.8733333333334,0.33999999999999991,285.58000000000004
2014-05-23,10:30,143.437,288.46233333333345,40.699333333333350,4.7780000000000005,-9999.0,105.50433333333332,895.18166666666684,1805.3120000000001,0.33999999999999991,286.30133333333339
2014-05-23,11:00,143.458,289.02400000000006,38.767333333333326,5.9413333333333327,-9999.0,108.37666666666668,927.98566666666670,1877.3470000000000,0.33999999999999991,286.16566666666671
2014-05-23,11:30,143.479,289.50766666666669,38.059666666666665,6.2273333333333332,-9999.0,109.92566666666666,951.40633333333324,1934.5139999999992,0.33999999999999991,286.10000000000002
2014-05-23,12:00,143.499,290.27033333333344,36.635333333333342,4.7563333333333331,-9999.0,108.76266666666668,962.36433333333298,1969.7826666666670,0.33999999999999991,285.86633333333339
2014-05-23,12:30,143.520,290.81833333333333,35.120333333333335,4.8293333333333326,-9999.0,105.50900000000001,957.06433333333337,1968.8456666666664,0.33999999999999991,285.70733333333334
2014-05-23,13:00,143.541,291.37466666666666,33.449666666666666,5.8636666666666653,-9999.0,103.05233333333334,941.71966666666674,1940.6193333333331,0.33999999999999991,285.68200000000002
2014-05-23,13:30,143.562,291.66700000000003,32.670666666666662,6.2679999999999989,-9999.0,101.44466666666666,916.31866666666667,1889.4459999999997,0.33999999999999991,285.58400000000006
2014-05-23,14:00,143.583,291.85933333333344,32.439666666666668,2.2503846153846156,-9999.0,70.094999999999999,647.46166666666659,1368.6163333333329,0.33999999999999991,286.07566666666673
2014-05-23,14:30,143.604,291.97633333333334,31.274000000000004,2.1856666666666675,-9999.0,92.307666666666691,820.57700000000011,1694.4870000000001,0.33999999999999991,286.60966666666661
2014-05-23,15:00,143.624,292.85866666666675,29.109666666666669,-0.91599999999999993,-9999.0,82.764333333333326,750.35999999999990,1555.2660000000005,0.33999999999999991,287.14199999999994
2014-05-23,15:30,143.645,292.95666666666671,28.431333333333331,-2.8926666666666665,-9999.0,74.233999999999995,677.16666666666652,1399.7993333333332,0.33999999999999991,287.72466666666674
2014-05-23,16:00,143.666,293.42633333333339,27.364666666666665,-6.1992307692307698,-9999.0,56.583666666666666,510.92966666666661,1060.2250000000001,0.33999999999999991,288.10533333333331
2014-05-23,16:30,143.687,293.34366666666671,27.823666666666671,-6.8139285714285709,-9999.0,51.340333333333334,449.56700000000006,934.44100000000014,0.33999999999999991,287.99633333333338
2014-05-23,17:00,143.708,293.81533333333334,27.197333333333336,-9.6449999999999996,-9999.0,48.600333333333332,418.99000000000001,868.92100000000005,0.33999999999999991,287.71733333333327
2014-05-23,17:30,143.729,294.23899999999998,26.587666666666667,-9999.0,-9999.0,38.775333333333336,318.16100000000006,661.42200000000014,0.33999999999999991,287.41333333333336
2014-05-23,18:00,143.749,294.24133333333333,26.862000000000005,-9999.0,-9999.0,30.349666666666668,233.64400000000003,485.89000000000010,0.33999999999999991,287.05233333333337
2014-05-23,18:30,143.770,293.87966666666671,29.179999999999996,-9999.0,-9999.0,21.277666666666669,149.88699999999997,312.50866666666673,0.33999999999999991,286.67966666666666
2014-05-23,19:00,143.791,292.33566666666678,36.225333333333325,-9999.0,-9999.0,13.560000000000000,76.751999999999995,158.15099999999998,0.33999999999999991,286.32566666666668
2014-05-23,19:30,143.812,291.30766666666665,39.404333333333327,-9999.0,-9999.0,5.0190000000000010,20.653666666666666,47.531333333333343,0.33999999999999991,285.97966666666673
2014-05-23,20:00,143.833,290.21233333333345,42.030000000000001,-9999.0,-9999.0,0.30033333333333317,-3.7826666666666662,4.6589999999999998,0.33999999999999991,285.63666666666660
2014-05-23,20:30,143.854,289.57866666666666,43.247666666666674,-9999.0,-9999.0,8.76666666666666844E-002,-6.0329999999999986,7.83333333333333104E-002,0.33999999999999991,285.27900000000005
2014-05-23,21:00,143.874,289.30700000000002,43.175666666666672,-9999.0,-9999.0,-1.63333333333333455E-002,-5.7149999999999999,-5.00000000000000010E-003,0.33999999999999991,284.91899999999998
2014-05-23,21:30,143.895,288.89233333333340,43.426666666666669,-9999.0,-9999.0,3.60000000000000112E-002,-5.6239999999999979,3.33333333333333214E-004,0.33999999999999991,284.59800000000007
2014-05-23,22:00,143.916,288.77400000000011,45.979333333333322,-9999.0,-9999.0,0.14933333333333335,-5.5143333333333340,4.66666666666666619E-003,0.33999999999999991,284.30300000000000
2014-05-23,22:30,143.937,288.11833333333340,47.947666666666663,-9999.0,-9999.0,-0.18233333333333335,-5.7916666666666670,2.33333333333333353E-003,0.33633333333333332,284.03600000000000
2014-05-23,23:00,143.958,287.17433333333327,49.870999999999995,-9999.0,-9999.0,-0.20133333333333331,-5.4043333333333328,6.66666666666667078E-004,0.33999999999999991,283.80566666666670
2014-05-23,23:30,143.979,286.93299999999999,49.448666666666661,-9999.0,-9999.0,0.21066666666666667,-4.8409999999999993,-8.33333333333333322E-003,0.33999999999999991,283.59733333333338
2014-05-24,00:00,144.000,286.54733333333331,49.789333333333325,-9999.0,-9999.0,1.66666666666666699E-002,-4.8996666666666666,3.66666666666666616E-003,0.33766666666666656,283.40199999999999
